Location: Vassar Physics Lab
(41.6843°N, 73.8954°W)
Time: 07:05:23
(UTC-05:00)

CZ-4B DEB - Visible Passes

Search period start: 28 January 2015 00:00
Search period end: 07 February 2015 00:00
Orbit: 843 x 864 km, 98.9° (Epoch: 27 January)

Date Brightness Start Highest point End Pass type
(mag) Time Alt. Az. Time Alt. Az. Time Alt. Az.
02 Feb 6.7 04:20:29 10° N 04:20:30 10° N 04:20:30 10° N visible
03 Feb 6.7 04:09:16 10° N 04:09:24 11° N 04:09:24 11° N visible
04 Feb 6.7 03:58:05 10° N 03:58:19 11° N 03:58:19 11° N visible
05 Feb 6.7 03:46:57 10° N 03:47:13 11° N 03:47:13 11° N visible
06 Feb 6.8 03:35:52 10° NNE 03:36:07 11° NNE 03:36:07 11° NNE visible
